Date String (YYYY-MM-DD hh:mm:ss) UTC,Instrument flags,Ambient pressure (hPa),Sample flow (lpm),Bypass flow (lpm),Sample temperature (°C),Ambient temperature (°C),ASC tube jacket temperature (°C),LED temperature (°C),Box temperature (°C),Sample RH (%),Span deviation,Mass concentration (μg/m³),Mass concentration (μg/m³),Mass concentration (μg/m³)
DateTimeUTC,F1_M11,P_M11,Q1_M11,Q2_M11,T1_M11,T2_M11,T3_M11,T4_M11,T5_M11,U1_M11,ZSPAN_M11,X0_M11,X2_M11,X1_M11
2021-09-23 09:00:00,,0828.0,5.00,0.00,30.1,28.6,00.0,39.3,31.7,08.0,0000.0,0006.27,0001.38,0000.94
2021-09-23 09:01:00,,0827.9,5.01,0.00,30.1,28.7,00.0,39.3,31.7,08.0,0000.0,0006.24,0001.35,0000.95
2021-09-23 09:02:00,,0828.0,4.99,0.00,30.1,28.8,00.0,39.3,31.8,08.0,0000.0,0006.26,0001.38,0000.96
2021-09-23 09:03:00,,0827.9,5.01,0.00,30.1,28.9,00.0,39.3,31.8,08.0,0000.0,0006.13,0001.37,0000.97
2021-09-23 09:04:00,,0827.9,5.00,0.00,30.1,29.0,00.0,39.3,31.9,07.9,0000.0,0006.16,0001.36,0000.98
2021-09-23 09:05:00,,0828.0,5.00,0.00,30.1,29.1,00.0,39.3,31.9,07.9,0000.0,0006.14,0001.34,0000.99
2021-09-23 09:06:00,,0827.8,5.01,0.00,30.2,29.1,00.0,39.3,31.9,07.9,0000.0,0006.18,0001.32,0000.99
2021-09-23 09:07:00,,0827.8,4.99,0.00,30.2,29.2,00.0,39.3,31.9,07.9,0000.0,0004.59,0001.31,0000.99
2021-09-23 09:08:00,,0827.9,4.99,0.00,30.2,29.2,00.0,39.3,32.0,07.8,0000.0,0004.14,0001.31,0001.00
2021-09-23 09:09:00,,0827.9,5.00,0.00,30.2,29.3,00.0,39.3,32.0,07.8,0000.0,0003.46,0001.27,0000.98
2021-09-23 09:10:00,,0827.9,5.01,0.00,30.2,29.3,00.0,39.3,32.0,07.7,0000.0,0003.21,0001.32,0000.98
2021-09-23 09:11:00,,0827.8,5.00,0.00,30.2,29.3,00.0,39.3,32.0,07.7,0000.0,0002.75,0001.32,0000.97
2021-09-23 09:12:00,,0827.8,4.99,0.00,30.3,29.3,00.0,39.4,32.0,07.7,0000.0,0002.89,0001.32,0000.96
2021-09-23 09:13:00,,0827.9,4.99,0.00,30.3,29.4,00.0,39.4,32.0,07.7,0000.0,0002.82,0001.27,0000.95
2021-09-23 09:14:00,,0827.9,5.01,0.00,30.3,29.4,00.0,39.4,32.0,07.6,0000.0,0003.01,0001.29,0000.94
2021-09-23 09:15:00,,0827.9,4.99,0.00,30.3,29.3,00.0,39.4,32.0,07.6,0000.0,0003.03,0001.31,0000.94
2021-09-23 09:16:00,,0827.9,4.99,0.00,30.3,29.3,00.0,39.4,32.0,07.6,0000.0,0003.75,0001.29,0000.94
2021-09-23 09:17:00,,0827.9,4.99,0.00,30.3,29.3,00.0,39.4,32.0,07.6,0000.0,0004.40,0001.27,0000.93
2021-09-23 09:18:00,,0827.9,5.00,0.00,30.3,29.3,00.0,39.4,32.0,07.6,0000.0,0004.52,0001.28,0000.92
2021-09-23 09:19:00,,0827.8,5.01,0.00,30.3,29.3,00.0,39.4,32.0,07.6,0000.0,0004.45,0001.28,0000.91
2021-09-23 09:20:00,,0827.8,4.99,0.00,30.3,29.4,00.0,39.4,32.0,07.6,0000.0,0004.57,0001.34,0000.90
2021-09-23 09:21:00,,0827.7,5.00,0.00,30.3,29.4,00.0,39.4,32.0,07.6,0000.0,0004.47,0001.32,0000.91
2021-09-23 09:22:00,,0827.7,5.01,0.00,30.3,29.4,00.0,39.4,32.1,07.6,0000.0,0004.46,0001.31,0000.90
2021-09-23 09:23:00,,0827.7,5.01,0.00,30.3,29.4,00.0,39.4,32.0,07.6,0000.0,0004.38,0001.32,0000.90
2021-09-23 09:24:00,,0827.7,4.99,0.00,30.4,29.4,00.0,39.4,32.0,07.6,0000.0,0004.51,0001.37,0000.91
2021-09-23 09:25:00,,0827.7,5.01,0.00,30.4,29.4,00.0,39.4,32.0,07.6,0000.0,0004.48,0001.40,0000.91
2021-09-23 09:26:00,,0827.7,5.00,0.00,30.4,29.4,00.0,39.5,32.0,07.6,0000.0,0004.64,0001.39,0000.90
2021-09-23 09:27:00,,0827.7,5.00,0.00,30.4,29.4,00.0,39.5,32.1,07.6,0000.0,0004.42,0001.39,0000.90
2021-09-23 09:28:00,,0827.7,5.01,0.00,30.4,29.4,00.0,39.5,32.1,07.6,0000.0,0003.22,0001.43,0000.91
2021-09-23 09:29:00,,0827.7,4.99,0.00,30.4,29.4,00.0,39.5,32.1,07.6,0000.0,0003.52,0001.46,0000.92
2021-09-23 09:30:00,,0827.7,5.02,0.00,30.4,29.4,00.0,39.5,32.1,07.7,0000.0,0003.72,0001.44,0000.92
2021-09-23 09:31:00,,0827.8,4.99,0.00,30.4,29.4,00.0,39.5,32.1,07.8,0000.0,0003.66,0001.40,0000.92
2021-09-23 09:32:00,,0827.7,5.01,0.00,30.4,29.4,00.0,39.5,32.1,07.7,0000.0,0003.69,0001.41,0000.93
2021-09-23 09:33:00,,0827.7,5.00,0.00,30.4,29.4,00.0,39.5,32.1,07.7,0000.0,0003.60,0001.40,0000.93
2021-09-23 09:34:00,,0827.8,4.99,0.00,30.4,29.4,00.0,39.5,32.1,07.8,0000.0,0003.63,0001.41,0000.93
2021-09-23 09:35:00,,0827.8,5.02,0.00,30.4,29.5,00.0,39.5,32.1,07.7,0000.0,0003.59,0001.39,0000.93
2021-09-23 09:36:00,,0827.9,4.99,0.00,30.4,29.5,00.0,39.5,32.2,07.7,0000.0,0004.02,0001.38,0000.94
2021-09-23 09:37:00,,0827.9,5.00,0.00,30.4,29.5,00.0,39.5,32.1,08.1,0000.0,0003.75,0001.38,0000.96
2021-09-23 09:38:00,,0827.9,4.99,0.00,30.4,29.5,00.0,39.5,32.1,08.1,0000.0,0003.85,0001.38,0000.98
2021-09-23 09:39:00,,0827.8,5.00,0.00,30.5,29.5,00.0,39.6,32.2,08.6,0000.0,0004.46,0001.40,0001.00
2021-09-23 09:40:00,,0827.9,5.01,0.00,30.5,29.5,00.0,39.6,32.2,08.7,0000.0,0004.85,0001.42,0001.03
2021-09-23 09:41:00,,0827.9,4.99,0.00,30.5,29.5,00.0,39.6,32.2,08.7,0000.0,0005.37,0001.49,0001.07
2021-09-23 09:42:00,,0827.9,5.01,0.00,30.5,29.5,00.0,39.6,32.2,08.7,0000.0,0006.08,0001.60,0001.11
2021-09-23 09:43:00,,0827.9,4.99,0.00,30.5,29.6,00.0,39.6,32.2,08.7,0000.0,0006.78,0001.68,0001.15
2021-09-23 09:44:00,,0827.9,5.00,0.00,30.5,29.6,00.0,39.6,32.2,08.7,0000.0,0006.92,0001.72,0001.18
2021-09-23 09:45:00,,0827.9,5.01,0.00,30.5,29.6,00.0,39.6,32.2,08.6,0000.0,0007.35,0001.81,0001.22
2021-09-23 09:46:00,,0827.9,4.99,0.00,30.5,29.6,00.0,39.6,32.2,08.6,0000.0,0007.43,0001.83,0001.25
2021-09-23 09:47:00,,0827.8,5.01,0.00,30.5,29.6,00.0,39.6,32.2,08.5,0000.0,0007.21,0001.91,0001.28
2021-09-23 09:48:00,,0827.8,5.00,0.00,30.5,29.6,00.0,39.6,32.2,08.5,0000.0,0007.30,0002.00,0001.29
2021-09-23 09:49:00,,0827.8,4.99,0.00,30.5,29.6,00.0,39.6,32.3,08.6,0000.0,0007.48,0002.04,0001.32
2021-09-23 09:50:00,,0827.8,5.01,0.00,30.5,29.6,00.0,39.6,32.3,08.5,0000.0,0007.34,0002.09,0001.32
2021-09-23 09:51:00,,0827.7,4.98,0.00,30.5,29.6,00.0,39.7,32.2,08.5,0000.0,0007.65,0002.14,0001.32
2021-09-23 09:52:00,,0827.8,5.00,0.00,30.5,29.7,00.0,39.7,32.2,08.6,0000.0,0007.35,0002.10,0001.31
2021-09-23 09:53:00,,0827.8,5.01,0.00,30.5,29.7,00.0,39.7,32.3,08.6,0000.0,0007.00,0002.05,0001.30
2021-09-23 09:54:00,,0827.7,5.00,0.00,30.5,29.7,00.0,39.7,32.3,08.8,0000.0,0006.06,0001.96,0001.29
2021-09-23 09:55:00,,0827.7,5.00,0.00,30.5,29.7,00.0,39.7,32.3,08.9,0000.0,0007.18,0001.96,0001.30
2021-09-23 09:56:00,,0827.7,4.99,0.00,30.5,29.7,00.0,39.7,32.3,08.9,0000.0,0007.12,0001.97,0001.29
2021-09-23 09:57:00,,0827.7,5.00,0.00,30.5,29.7,00.0,39.7,32.3,08.9,0000.0,0006.90,0001.97,0001.29
2021-09-23 09:58:00,,0827.7,5.00,0.00,30.6,29.7,00.0,39.7,32.3,08.7,0000.0,0007.00,0001.96,0001.29
2021-09-23 09:59:00,,0827.7,4.99,0.00,30.6,29.7,00.0,39.7,32.3,08.6,0000.0,0007.53,0001.89,0001.28
